Zurück zum Katalog

COSMOS 2302

AktivMilitärPO
NORAD 23444·PAYLOAD·🇷🇺 Russia

Gestartet Dec 26, 1994 von Plesetsk Cosmodrome

Loading…

Nächste Überflüge (nächste 24 Stunden)

TLE

AktuellSource: Space-Track

Epoche: Sep 14, 2026, 01:22 UTC

1 23444U 94086D   26257.05753995  .00000005  00000-0 -33269-4 0  9992
2 23444  82.5602 270.5927 0006861 352.9365  33.3845 12.61274719460026

Verfolge COSMOS 2302 in Echtzeit mit AllMySat

Download on the App Store